Time,TemperatureF,DewpointF,PressureIn,WindDirection,WindDirectionDegrees,WindSpeedMPH,WindSpeedGustMPH,Humidity,HourlyPrecipIn,Conditions,Clouds,dailyrainin,SoftwareType,DateUTC
2013-07-08 00:01:00,75.1,71.6,30.05,North,0,0.0,0.0,89,0.00,,,0.00,WUHU216HW,2013-07-08 04:01:00,
2013-07-08 00:02:00,75.1,71.6,30.05,North,0,0.0,0.0,89,0.00,,,0.00,WUHU216HW,2013-07-08 04:02:00,
2013-07-08 00:07:00,75.1,71.6,30.06,North,0,0.0,0.0,89,0.00,,,0.00,WUHU216HW,2013-07-08 04:07:00,
2013-07-08 00:12:00,75.1,71.6,30.06,North,0,0.0,0.0,89,0.00,,,0.00,WUHU216HW,2013-07-08 04:12:00,
2013-07-08 00:18:00,75.1,71.6,30.05,North,0,0.0,0.0,89,0.00,,,0.00,WUHU216HW,2013-07-08 04:18:00,
2013-07-08 00:23:00,75.1,71.6,30.05,North,0,0.0,0.0,89,0.00,,,0.00,WUHU216HW,2013-07-08 04:23:00,
2013-07-08 00:28:00,75.1,71.6,30.05,North,0,0.0,0.0,89,0.00,,,0.00,WUHU216HW,2013-07-08 04:28:00,
2013-07-08 00:33:00,75.1,71.6,30.07,North,0,0.0,0.0,89,0.00,,,0.00,WUHU216HW,2013-07-08 04:33:00,
2013-07-08 00:38:00,75.1,71.6,30.07,North,0,0.0,0.0,89,0.00,,,0.00,WUHU216HW,2013-07-08 04:38:00,
2013-07-08 00:43:00,75.1,71.6,30.06,North,0,0.0,0.0,89,0.00,,,0.00,WUHU216HW,2013-07-08 04:43:00,
2013-07-08 00:48:00,75.1,71.6,30.06,North,0,0.0,0.0,89,0.00,,,0.00,WUHU216HW,2013-07-08 04:48:00,
2013-07-08 00:53:00,75.1,72.0,30.06,North,0,0.0,0.0,90,0.00,,,0.00,WUHU216HW,2013-07-08 04:53:00,
2013-07-08 00:58:00,75.1,72.0,30.06,North,0,0.0,0.0,90,0.00,,,0.00,WUHU216HW,2013-07-08 04:58:00,
2013-07-08 01:03:00,74.9,71.8,30.05,North,0,0.0,0.0,90,0.00,,,0.00,WUHU216HW,2013-07-08 05:03:00,
2013-07-08 01:09:00,74.9,71.8,30.05,North,0,0.0,0.0,90,0.00,,,0.00,WUHU216HW,2013-07-08 05:09:00,
2013-07-08 01:14:00,74.9,71.8,30.05,North,0,0.0,0.0,90,0.00,,,0.00,WUHU216HW,2013-07-08 05:14:00,
2013-07-08 01:19:00,74.9,71.8,30.05,North,0,0.0,0.0,90,0.00,,,0.00,WUHU216HW,2013-07-08 05:19:00,
2013-07-08 01:24:00,74.7,71.9,30.05,North,0,0.0,0.0,91,0.00,,,0.00,WUHU216HW,2013-07-08 05:24:00,
2013-07-08 01:29:00,74.7,71.6,30.05,North,0,0.0,0.0,90,0.00,,,0.00,WUHU216HW,2013-07-08 05:29:00,
2013-07-08 01:34:00,74.7,71.6,30.05,North,0,0.0,0.0,90,0.00,,,0.00,WUHU216HW,2013-07-08 05:34:00,
2013-07-08 01:39:00,74.7,71.9,30.05,North,0,0.0,0.0,91,0.00,,,0.00,WUHU216HW,2013-07-08 05:39:00,
2013-07-08 01:44:00,74.5,71.5,30.05,North,0,0.0,0.0,90,0.00,,,0.00,WUHU216HW,2013-07-08 05:44:00,
2013-07-08 01:49:00,74.5,71.5,30.05,North,0,0.0,0.0,90,0.00,,,0.00,WUHU216HW,2013-07-08 05:49:00,
2013-07-08 01:54:00,74.5,71.5,30.05,North,0,0.0,0.0,90,0.00,,,0.00,WUHU216HW,2013-07-08 05:54:00,
2013-07-08 01:59:00,74.5,71.5,30.05,North,0,0.0,0.0,90,0.00,,,0.00,WUHU216HW,2013-07-08 05:59:00,
2013-07-08 02:05:00,74.5,71.5,30.05,North,0,0.0,0.0,90,0.00,,,0.00,WUHU216HW,2013-07-08 06:05:00,
2013-07-08 02:10:00,74.5,71.5,30.05,North,0,0.0,0.0,90,0.00,,,0.00,WUHU216HW,2013-07-08 06:10:00,
2013-07-08 02:15:00,74.5,71.5,30.05,North,0,0.0,0.0,90,0.00,,,0.00,WUHU216HW,2013-07-08 06:15:00,
2013-07-08 02:20:00,74.5,71.5,30.05,North,0,0.0,0.0,90,0.00,,,0.00,WUHU216HW,2013-07-08 06:20:00,
2013-07-08 02:25:00,74.3,71.3,30.05,North,0,0.0,0.0,90,0.00,,,0.00,WUHU216HW,2013-07-08 06:25:00,
2013-07-08 02:30:00,74.3,71.3,30.05,North,0,0.0,0.0,90,0.00,,,0.00,WUHU216HW,2013-07-08 06:30:00,
2013-07-08 02:35:00,74.3,71.3,30.05,North,0,0.0,0.0,90,0.00,,,0.00,WUHU216HW,2013-07-08 06:35:00,
2013-07-08 02:41:00,74.2,71.1,30.05,North,0,0.0,0.0,90,0.00,,,0.00,WUHU216HW,2013-07-08 06:41:00,
2013-07-08 02:46:00,74.2,71.1,30.04,North,0,0.0,0.0,90,0.00,,,0.00,WUHU216HW,2013-07-08 06:46:00,
2013-07-08 02:51:00,74.2,71.1,30.04,North,0,0.0,0.0,90,0.00,,,0.00,WUHU216HW,2013-07-08 06:51:00,
2013-07-08 02:56:00,74.0,70.9,30.04,North,0,0.0,0.0,90,0.00,,,0.00,WUHU216HW,2013-07-08 06:56:00,
2013-07-08 03:01:00,74.0,70.9,30.04,North,0,0.0,0.0,90,0.00,,,0.00,WUHU216HW,2013-07-08 07:01:00,
2013-07-08 03:06:00,74.0,70.9,30.04,North,0,0.0,0.0,90,0.00,,,0.00,WUHU216HW,2013-07-08 07:06:00,
2013-07-08 03:11:00,73.8,70.7,30.04,North,0,0.0,0.0,90,0.00,,,0.00,WUHU216HW,2013-07-08 07:11:00,
2013-07-08 03:16:00,73.8,70.7,30.04,North,0,0.0,0.0,90,0.00,,,0.00,WUHU216HW,2013-07-08 07:16:00,
2013-07-08 03:21:00,73.8,70.7,30.04,North,0,0.0,0.0,90,0.00,,,0.00,WUHU216HW,2013-07-08 07:21:00,
2013-07-08 03:26:00,73.8,71.0,30.04,North,0,0.0,0.0,91,0.00,,,0.00,WUHU216HW,2013-07-08 07:26:00,
2013-07-08 03:32:00,73.6,70.8,30.04,North,0,0.0,0.0,91,0.00,,,0.00,WUHU216HW,2013-07-08 07:32:00,
2013-07-08 03:37:00,73.6,70.8,30.04,North,0,0.0,0.0,91,0.00,,,0.00,WUHU216HW,2013-07-08 07:37:00,
2013-07-08 03:42:00,73.6,70.8,30.04,North,0,0.0,0.0,91,0.00,,,0.00,WUHU216HW,2013-07-08 07:42:00,
2013-07-08 03:47:00,73.6,70.8,30.04,North,0,0.0,0.0,91,0.00,,,0.00,WUHU216HW,2013-07-08 07:47:00,
2013-07-08 03:52:00,73.4,70.7,30.04,North,0,0.0,0.0,91,0.00,,,0.00,WUHU216HW,2013-07-08 07:52:00,
2013-07-08 03:57:00,73.4,70.7,30.04,North,0,0.0,0.0,91,0.00,,,0.00,WUHU216HW,2013-07-08 07:57:00,
2013-07-08 04:02:00,73.4,70.7,30.04,North,0,0.0,0.0,91,0.00,,,0.00,WUHU216HW,2013-07-08 08:02:00,
2013-07-08 04:07:00,73.4,70.7,30.04,North,0,0.0,0.0,91,0.00,,,0.00,WUHU216HW,2013-07-08 08:07:00,
2013-07-08 04:12:00,73.3,70.5,30.04,North,0,0.0,0.0,91,0.00,,,0.00,WUHU216HW,2013-07-08 08:12:00,
2013-07-08 04:17:00,73.3,70.5,30.04,North,0,0.0,0.0,91,0.00,,,0.00,WUHU216HW,2013-07-08 08:17:00,
2013-07-08 04:22:00,73.3,70.5,30.04,North,0,0.0,0.0,91,0.00,,,0.00,WUHU216HW,2013-07-08 08:22:00,
2013-07-08 04:28:00,73.3,70.5,30.04,North,0,0.0,0.0,91,0.00,,,0.00,WUHU216HW,2013-07-08 08:28:00,
2013-07-08 04:33:00,73.3,70.5,30.04,North,0,0.0,0.0,91,0.00,,,0.00,WUHU216HW,2013-07-08 08:33:00,
2013-07-08 04:38:00,73.1,70.0,30.04,North,0,0.0,0.0,90,0.00,,,0.00,WUHU216HW,2013-07-08 08:38:00,
2013-07-08 04:43:00,73.1,70.0,30.04,North,0,0.0,0.0,90,0.00,,,0.00,WUHU216HW,2013-07-08 08:43:00,
2013-07-08 04:48:00,73.1,70.0,30.04,North,0,0.0,0.0,90,0.00,,,0.00,WUHU216HW,2013-07-08 08:48:00,
2013-07-08 04:53:00,73.1,70.0,30.04,North,0,0.0,0.0,90,0.00,,,0.00,WUHU216HW,2013-07-08 08:53:00,
2013-07-08 04:58:00,73.1,70.0,30.04,North,0,0.0,0.0,90,0.00,,,0.00,WUHU216HW,2013-07-08 08:58:00,
2013-07-08 05:03:00,73.1,70.3,30.04,North,0,0.0,0.0,91,0.00,,,0.00,WUHU216HW,2013-07-08 09:03:00,
2013-07-08 05:08:00,73.1,70.3,30.04,North,0,0.0,0.0,91,0.00,,,0.00,WUHU216HW,2013-07-08 09:08:00,
2013-07-08 05:13:00,73.1,70.3,30.04,North,0,0.0,0.0,91,0.00,,,0.00,WUHU216HW,2013-07-08 09:13:00,
2013-07-08 05:18:00,73.1,70.3,30.04,North,0,0.0,0.0,91,0.00,,,0.00,WUHU216HW,2013-07-08 09:18:00,
2013-07-08 05:23:00,73.1,70.3,30.04,North,0,0.0,0.0,91,0.00,,,0.00,WUHU216HW,2013-07-08 09:23:00,
2013-07-08 05:28:00,73.1,70.3,30.04,North,0,0.0,0.0,91,0.00,,,0.00,WUHU216HW,2013-07-08 09:28:00,
2013-07-08 05:33:00,72.9,70.1,30.04,North,0,0.0,0.0,91,0.00,,,0.00,WUHU216HW,2013-07-08 09:33:00,
2013-07-08 05:38:00,72.9,70.1,30.04,North,0,0.0,0.0,91,0.00,,,0.00,WUHU216HW,2013-07-08 09:38:00,
2013-07-08 05:44:00,72.9,70.1,30.03,North,0,0.0,0.0,91,0.00,,,0.00,WUHU216HW,2013-07-08 09:44:00,
2013-07-08 05:49:00,72.9,70.1,30.03,North,0,0.0,0.0,91,0.00,,,0.00,WUHU216HW,2013-07-08 09:49:00,
2013-07-08 05:54:00,72.9,70.1,30.03,North,0,0.0,0.0,91,0.00,,,0.00,WUHU216HW,2013-07-08 09:54:00,
2013-07-08 05:59:00,72.9,70.1,30.04,North,0,0.0,0.0,91,0.00,,,0.00,WUHU216HW,2013-07-08 09:59:00,
2013-07-08 06:04:00,72.9,70.1,30.04,North,0,0.0,0.0,91,0.00,,,0.00,WUHU216HW,2013-07-08 10:04:00,
2013-07-08 06:09:00,72.9,70.1,30.04,North,0,0.0,0.0,91,0.00,,,0.00,WUHU216HW,2013-07-08 10:09:00,
2013-07-08 06:14:00,72.9,70.1,30.04,North,0,0.0,0.0,91,0.00,,,0.00,WUHU216HW,2013-07-08 10:14:00,
2013-07-08 06:19:00,72.9,70.1,30.06,North,0,0.0,0.0,91,0.00,,,0.00,WUHU216HW,2013-07-08 10:19:00,
2013-07-08 06:24:00,72.9,70.1,30.05,North,0,0.0,0.0,91,0.00,,,0.00,WUHU216HW,2013-07-08 10:24:00,
2013-07-08 06:30:00,73.1,70.3,30.06,North,0,0.0,0.0,91,0.00,,,0.00,WUHU216HW,2013-07-08 10:30:00,
2013-07-08 06:35:00,73.1,70.3,30.05,North,0,0.0,0.0,91,0.00,,,0.00,WUHU216HW,2013-07-08 10:35:00,
2013-07-08 06:40:00,73.1,70.3,30.06,North,0,0.0,0.0,91,0.00,,,0.00,WUHU216HW,2013-07-08 10:40:00,
2013-07-08 06:45:00,73.1,70.3,30.06,North,0,0.0,0.0,91,0.00,,,0.00,WUHU216HW,2013-07-08 10:45:00,
2013-07-08 06:50:00,73.1,70.3,30.07,North,0,0.0,0.0,91,0.00,,,0.00,WUHU216HW,2013-07-08 10:50:00,
2013-07-08 06:55:00,73.1,70.3,30.07,North,0,0.0,0.0,91,0.00,,,0.00,WUHU216HW,2013-07-08 10:55:00,
2013-07-08 07:00:00,73.1,70.3,30.07,North,0,0.0,0.0,91,0.00,,,0.00,WUHU216HW,2013-07-08 11:00:00,
2013-07-08 07:05:00,73.1,70.3,30.07,North,0,0.0,0.0,91,0.00,,,0.00,WUHU216HW,2013-07-08 11:05:00,
2013-07-08 07:10:00,73.3,70.8,30.07,North,0,0.0,0.0,92,0.00,,,0.00,WUHU216HW,2013-07-08 11:10:00,
2013-07-08 07:16:00,73.3,70.8,30.07,North,0,0.0,0.0,92,0.00,,,0.00,WUHU216HW,2013-07-08 11:16:00,
2013-07-08 07:21:00,73.4,71.0,30.07,North,0,0.0,0.0,92,0.00,,,0.00,WUHU216HW,2013-07-08 11:21:00,
2013-07-08 07:26:00,73.4,71.3,30.07,North,0,0.0,0.0,93,0.00,,,0.00,WUHU216HW,2013-07-08 11:26:00,
2013-07-08 07:31:00,73.4,71.3,30.07,North,0,0.0,0.0,93,0.00,,,0.00,WUHU216HW,2013-07-08 11:31:00,
2013-07-08 07:36:00,73.4,71.3,30.07,North,0,0.0,0.0,93,0.00,,,0.00,WUHU216HW,2013-07-08 11:36:00,
2013-07-08 07:41:00,73.4,71.3,30.07,North,0,0.0,0.0,93,0.00,,,0.00,WUHU216HW,2013-07-08 11:41:00,
2013-07-08 07:46:00,73.6,71.5,30.07,North,0,0.0,0.0,93,0.00,,,0.00,WUHU216HW,2013-07-08 11:46:00,
2013-07-08 07:51:00,73.6,71.5,30.07,North,0,0.0,0.0,93,0.00,,,0.00,WUHU216HW,2013-07-08 11:51:00,
2013-07-08 07:56:00,74.2,72.0,30.07,North,0,0.0,0.0,93,0.00,,,0.00,WUHU216HW,2013-07-08 11:56:00,
2013-07-08 08:01:00,74.5,72.4,30.08,North,0,0.0,0.0,93,0.00,,,0.00,WUHU216HW,2013-07-08 12:01:00,
2013-07-08 08:06:00,74.7,72.5,30.07,North,0,0.0,0.0,93,0.00,,,0.00,WUHU216HW,2013-07-08 12:06:00,
2013-07-08 08:11:00,75.1,72.9,30.07,North,0,0.0,0.0,93,0.00,,,0.00,WUHU216HW,2013-07-08 12:11:00,
2013-07-08 08:16:00,75.6,73.8,30.07,North,0,0.0,0.0,94,0.00,,,0.00,WUHU216HW,2013-07-08 12:16:00,
2013-07-08 08:21:00,76.0,74.2,30.07,North,0,0.0,0.0,94,0.00,,,0.00,WUHU216HW,2013-07-08 12:21:00,
2013-07-08 08:26:00,76.0,73.8,30.07,North,0,0.0,0.0,93,0.00,,,0.00,WUHU216HW,2013-07-08 12:26:00,
2013-07-08 08:32:00,76.0,73.5,30.08,North,0,0.0,0.0,92,0.00,,,0.00,WUHU216HW,2013-07-08 12:32:00,
2013-07-08 08:37:00,76.1,73.7,30.08,North,0,0.0,0.0,92,0.00,,,0.00,WUHU216HW,2013-07-08 12:37:00,
2013-07-08 08:42:00,77.0,74.9,30.07,North,0,0.0,0.0,93,0.00,,,0.00,WUHU216HW,2013-07-08 12:42:00,
2013-07-08 08:47:00,77.8,75.3,30.07,North,0,0.0,0.0,92,0.00,,,0.00,WUHU216HW,2013-07-08 12:47:00,
2013-07-08 08:52:00,78.5,76.1,30.07,North,0,0.0,0.0,92,0.00,,,0.00,WUHU216HW,2013-07-08 12:52:00,
2013-07-08 08:57:00,78.7,75.9,30.07,North,0,0.0,0.0,91,0.00,,,0.00,WUHU216HW,2013-07-08 12:57:00,
2013-07-08 09:02:00,78.5,75.4,30.07,North,0,0.0,0.0,90,0.00,,,0.00,WUHU216HW,2013-07-08 13:02:00,
2013-07-08 09:03:00,78.5,75.4,30.08,North,0,0.0,0.0,90,0.00,,,0.00,WUHU216HW,2013-07-08 13:03:00,
2013-07-08 09:08:00,78.5,75.4,30.07,North,0,0.0,0.0,90,0.00,,,0.00,WUHU216HW,2013-07-08 13:08:00,
2013-07-08 09:13:00,79.0,76.2,30.07,North,0,0.0,0.0,91,0.00,,,0.00,WUHU216HW,2013-07-08 13:13:00,
2013-07-08 09:19:00,79.9,76.8,30.07,North,0,0.0,0.0,90,0.00,,,0.00,WUHU216HW,2013-07-08 13:19:00,
2013-07-08 09:24:00,80.5,76.9,30.07,North,0,0.0,0.0,89,0.00,,,0.00,WUHU216HW,2013-07-08 13:24:00,
2013-07-08 09:29:00,80.6,76.7,30.07,North,0,0.0,0.0,88,0.00,,,0.00,WUHU216HW,2013-07-08 13:29:00,
2013-07-08 09:34:00,80.6,76.4,30.08,North,0,0.0,0.0,87,0.00,,,0.00,WUHU216HW,2013-07-08 13:34:00,
2013-07-08 09:39:00,80.5,76.2,30.08,North,0,0.0,0.0,87,0.00,,,0.00,WUHU216HW,2013-07-08 13:39:00,
2013-07-08 09:44:00,80.5,76.2,30.08,North,0,0.0,0.0,87,0.00,,,0.00,WUHU216HW,2013-07-08 13:44:00,
2013-07-08 09:49:00,80.5,76.2,30.08,North,0,0.0,0.0,87,0.00,,,0.00,WUHU216HW,2013-07-08 13:49:00,
2013-07-08 09:54:00,80.5,76.2,30.08,North,0,0.0,0.0,87,0.00,,,0.00,WUHU216HW,2013-07-08 13:54:00,
2013-07-08 09:59:00,80.5,76.2,30.09,North,0,0.0,0.0,87,0.00,,,0.00,WUHU216HW,2013-07-08 13:59:00,
2013-07-08 10:04:00,80.3,75.7,30.09,North,0,0.0,0.0,86,0.00,,,0.00,WUHU216HW,2013-07-08 14:04:00,
2013-07-08 10:09:00,80.3,76.1,30.09,North,0,0.0,0.0,87,0.00,,,0.00,WUHU216HW,2013-07-08 14:09:00,
2013-07-08 10:14:00,80.3,76.1,30.09,North,0,0.0,0.0,87,0.00,,,0.00,WUHU216HW,2013-07-08 14:14:00,
2013-07-08 10:19:00,80.3,76.1,30.09,North,0,0.0,0.0,87,0.00,,,0.00,WUHU216HW,2013-07-08 14:19:00,
2013-07-08 10:24:00,80.3,76.1,30.09,North,0,0.0,0.0,87,0.00,,,0.00,WUHU216HW,2013-07-08 14:24:00,
2013-07-08 10:30:00,80.3,76.1,30.09,North,0,0.0,0.0,87,0.00,,,0.00,WUHU216HW,2013-07-08 14:30:00,
2013-07-08 10:35:00,80.1,75.9,30.09,North,0,0.0,0.0,87,0.00,,,0.00,WUHU216HW,2013-07-08 14:35:00,
2013-07-08 10:40:00,80.3,76.1,30.09,North,0,0.0,0.0,87,0.00,,,0.00,WUHU216HW,2013-07-08 14:40:00,
2013-07-08 10:45:00,80.3,76.1,30.09,North,0,0.0,0.0,87,0.00,,,0.00,WUHU216HW,2013-07-08 14:45:00,
2013-07-08 10:50:00,80.3,75.7,30.09,North,0,0.0,0.0,86,0.00,,,0.00,WUHU216HW,2013-07-08 14:50:00,
2013-07-08 10:55:00,80.5,76.2,30.09,North,0,0.0,0.0,87,0.00,,,0.00,WUHU216HW,2013-07-08 14:55:00,
2013-07-08 11:00:00,80.8,76.6,30.09,North,0,0.0,0.0,87,0.00,,,0.00,WUHU216HW,2013-07-08 15:00:00,
2013-07-08 11:05:00,81.0,76.8,30.09,North,0,0.0,0.0,87,0.00,,,0.00,WUHU216HW,2013-07-08 15:05:00,
2013-07-08 11:10:00,81.2,77.0,30.09,North,0,0.0,0.0,87,0.00,,,0.00,WUHU216HW,2013-07-08 15:10:00,
2013-07-08 11:15:00,81.4,77.1,30.09,North,0,0.0,0.0,87,0.00,,,0.00,WUHU216HW,2013-07-08 15:15:00,
2013-07-08 11:20:00,81.5,77.0,30.09,North,0,0.0,0.0,86,0.00,,,0.00,WUHU216HW,2013-07-08 15:20:00,
2013-07-08 11:26:00,82.1,77.9,30.09,North,0,0.0,0.0,87,0.00,,,0.00,WUHU216HW,2013-07-08 15:26:00,
2013-07-08 11:31:00,82.4,78.2,30.09,North,0,0.0,0.0,87,0.00,,,0.00,WUHU216HW,2013-07-08 15:31:00,
2013-07-08 11:36:00,83.2,78.2,30.09,North,0,0.0,0.0,85,0.00,,,0.00,WUHU216HW,2013-07-08 15:36:00,
2013-07-08 11:41:00,83.5,78.5,30.09,North,0,0.0,0.0,85,0.00,,,0.00,WUHU216HW,2013-07-08 15:41:00,
2013-07-08 11:46:00,83.9,78.1,30.09,North,0,0.0,0.0,83,0.00,,,0.00,WUHU216HW,2013-07-08 15:46:00,
2013-07-08 11:51:00,84.2,78.5,30.09,North,0,0.0,0.0,83,0.00,,,0.00,WUHU216HW,2013-07-08 15:51:00,
2013-07-08 11:56:00,84.6,78.8,30.09,North,0,0.0,0.0,83,0.00,,,0.00,WUHU216HW,2013-07-08 15:56:00,
2013-07-08 12:01:00,85.0,78.5,30.09,North,0,0.0,0.0,81,0.00,,,0.00,WUHU216HW,2013-07-08 16:01:00,
2013-07-08 12:06:00,84.8,78.3,30.09,North,0,0.0,0.0,81,0.00,,,0.00,WUHU216HW,2013-07-08 16:06:00,
2013-07-08 12:11:00,84.4,77.9,30.08,North,0,0.0,0.0,81,0.00,,,0.00,WUHU216HW,2013-07-08 16:11:00,
2013-07-08 12:16:00,84.2,78.1,30.09,North,0,0.0,0.0,82,0.00,,,0.00,WUHU216HW,2013-07-08 16:16:00,
2013-07-08 12:21:00,83.9,77.8,30.09,North,0,0.0,0.0,82,0.00,,,0.00,WUHU216HW,2013-07-08 16:21:00,
2013-07-08 12:26:00,83.9,77.8,30.09,North,0,0.0,0.0,82,0.00,,,0.00,WUHU216HW,2013-07-08 16:26:00,
2013-07-08 12:31:00,83.5,77.5,30.09,North,0,0.0,0.0,82,0.00,,,0.00,WUHU216HW,2013-07-08 16:31:00,
2013-07-08 12:36:00,83.3,77.3,30.09,North,0,0.0,0.0,82,0.00,,,0.00,WUHU216HW,2013-07-08 16:36:00,
2013-07-08 12:41:00,83.2,77.1,30.09,North,0,0.0,0.0,82,0.00,,,0.00,WUHU216HW,2013-07-08 16:41:00,
2013-07-08 12:47:00,82.8,76.8,30.09,North,0,0.0,0.0,82,0.00,,,0.00,WUHU216HW,2013-07-08 16:47:00,
2013-07-08 12:52:00,82.4,76.5,30.08,North,0,0.0,0.0,82,0.00,,,0.00,WUHU216HW,2013-07-08 16:52:00,
2013-07-08 12:57:00,82.1,76.2,30.09,North,0,0.0,0.0,82,0.00,,,0.00,WUHU216HW,2013-07-08 16:57:00,
2013-07-08 13:03:00,81.7,76.1,30.09,North,0,0.0,0.0,83,0.00,,,0.00,WUHU216HW,2013-07-08 17:03:00,
2013-07-08 13:08:00,81.5,76.2,30.09,North,0,0.0,0.0,84,0.00,,,0.00,WUHU216HW,2013-07-08 17:08:00,
2013-07-08 13:13:00,81.4,76.1,30.09,North,0,0.0,0.0,84,0.00,,,0.00,WUHU216HW,2013-07-08 17:13:00,
2013-07-08 13:18:00,81.2,75.5,30.09,North,0,0.0,0.0,83,0.00,,,0.00,WUHU216HW,2013-07-08 17:18:00,
2013-07-08 13:23:00,81.0,75.3,30.09,North,0,0.0,0.0,83,0.00,,,0.00,WUHU216HW,2013-07-08 17:23:00,
2013-07-08 13:28:00,80.8,75.2,30.09,North,0,0.0,0.0,83,0.00,,,0.00,WUHU216HW,2013-07-08 17:28:00,
2013-07-08 13:33:00,80.6,75.0,30.09,North,0,0.0,0.0,83,0.00,,,0.00,WUHU216HW,2013-07-08 17:33:00,
2013-07-08 13:38:00,80.3,74.7,30.08,North,0,0.0,0.0,83,0.00,,,0.00,WUHU216HW,2013-07-08 17:38:00,
2013-07-08 13:43:00,80.3,74.7,30.08,North,0,0.0,0.0,83,0.00,,,0.00,WUHU216HW,2013-07-08 17:43:00,
2013-07-08 13:48:00,81.0,75.1,30.08,North,0,0.0,0.0,82,0.00,,,0.00,WUHU216HW,2013-07-08 17:48:00,
2013-07-08 13:53:00,81.2,74.9,30.08,North,0,0.0,0.0,81,0.00,,,0.00,WUHU216HW,2013-07-08 17:53:00,
2013-07-08 13:58:00,81.7,75.8,30.08,North,0,0.0,0.0,82,0.00,,,0.00,WUHU216HW,2013-07-08 17:58:00,
2013-07-08 14:03:00,82.1,76.2,30.08,North,0,0.0,0.0,82,0.00,,,0.00,WUHU216HW,2013-07-08 18:03:00,
2013-07-08 14:09:00,82.4,76.5,30.08,North,0,0.0,0.0,82,0.00,,,0.00,WUHU216HW,2013-07-08 18:09:00,
2013-07-08 14:14:00,82.6,76.6,30.08,North,0,0.0,0.0,82,0.00,,,0.00,WUHU216HW,2013-07-08 18:14:00,
2013-07-08 14:19:00,82.4,76.5,30.07,North,0,0.0,0.0,82,0.00,,,0.00,WUHU216HW,2013-07-08 18:19:00,
2013-07-08 14:24:00,82.4,76.5,30.07,North,0,0.0,0.0,82,0.00,,,0.00,WUHU216HW,2013-07-08 18:24:00,
2013-07-08 14:29:00,82.4,76.2,30.07,North,0,0.0,0.0,81,0.00,,,0.00,WUHU216HW,2013-07-08 18:29:00,
2013-07-08 14:35:00,82.4,76.2,30.07,North,0,0.0,0.0,81,0.00,,,0.00,WUHU216HW,2013-07-08 18:35:00,
2013-07-08 14:40:00,82.3,76.3,30.07,North,0,0.0,0.0,82,0.00,,,0.00,WUHU216HW,2013-07-08 18:40:00,
2013-07-08 14:45:00,82.3,76.3,30.07,North,0,0.0,0.0,82,0.00,,,0.00,WUHU216HW,2013-07-08 18:45:00,
2013-07-08 14:50:00,82.3,76.3,30.07,North,0,0.0,0.0,82,0.00,,,0.00,WUHU216HW,2013-07-08 18:50:00,
2013-07-08 14:55:00,82.1,76.2,30.07,North,0,0.0,0.0,82,0.00,,,0.00,WUHU216HW,2013-07-08 18:55:00,
2013-07-08 15:00:00,82.1,76.4,30.07,North,0,0.0,0.0,83,0.00,,,0.00,WUHU216HW,2013-07-08 19:00:00,
2013-07-08 15:06:00,81.9,76.2,30.07,North,0,0.0,0.0,83,0.00,,,0.00,WUHU216HW,2013-07-08 19:06:00,
2013-07-08 15:12:00,81.7,76.1,30.07,North,0,0.0,0.0,83,0.00,,,0.00,WUHU216HW,2013-07-08 19:12:00,
2013-07-08 15:17:00,81.7,76.1,30.06,North,0,0.0,0.0,83,0.00,,,0.00,WUHU216HW,2013-07-08 19:17:00,
2013-07-08 15:23:00,81.5,75.9,30.06,North,0,0.0,0.0,83,0.00,,,0.00,WUHU216HW,2013-07-08 19:23:00,
2013-07-08 15:28:00,81.4,76.1,30.05,North,0,0.0,0.0,84,0.00,,,0.00,WUHU216HW,2013-07-08 19:28:00,
2013-07-08 15:33:00,81.4,76.1,30.05,North,0,0.0,0.0,84,0.00,,,0.00,WUHU216HW,2013-07-08 19:33:00,
2013-07-08 15:38:00,81.5,75.9,30.05,North,0,0.0,0.0,83,0.00,,,0.00,WUHU216HW,2013-07-08 19:38:00,
2013-07-08 15:43:00,81.7,75.8,30.05,North,0,0.0,0.0,82,0.00,,,0.00,WUHU216HW,2013-07-08 19:43:00,
2013-07-08 15:48:00,81.7,75.8,30.04,North,0,0.0,0.0,82,0.00,,,0.00,WUHU216HW,2013-07-08 19:48:00,
2013-07-08 15:54:00,82.1,76.2,30.04,North,0,0.0,0.0,82,0.00,,,0.00,WUHU216HW,2013-07-08 19:54:00,
2013-07-08 15:59:00,81.9,76.0,30.04,North,0,0.0,0.0,82,0.00,,,0.00,WUHU216HW,2013-07-08 19:59:00,
2013-07-08 16:04:00,82.1,76.2,30.04,North,0,0.0,0.0,82,0.00,,,0.00,WUHU216HW,2013-07-08 20:04:00,
2013-07-08 16:09:00,82.1,76.2,30.03,North,0,0.0,0.0,82,0.00,,,0.00,WUHU216HW,2013-07-08 20:09:00,
2013-07-08 16:14:00,82.1,75.8,30.03,North,0,0.0,0.0,81,0.00,,,0.00,WUHU216HW,2013-07-08 20:14:00,
2013-07-08 16:20:00,82.1,75.4,30.03,North,0,0.0,0.0,80,0.00,,,0.00,WUHU216HW,2013-07-08 20:20:00,
2013-07-08 16:25:00,82.3,76.0,30.03,North,0,0.0,0.0,81,0.00,,,0.00,WUHU216HW,2013-07-08 20:25:00,
2013-07-08 16:30:00,82.3,75.6,30.03,North,0,0.0,0.0,80,0.00,,,0.00,WUHU216HW,2013-07-08 20:30:00,
2013-07-08 16:36:00,82.3,75.6,30.03,North,0,0.0,0.0,80,0.00,,,0.00,WUHU216HW,2013-07-08 20:36:00,
2013-07-08 16:41:00,82.4,75.8,30.03,North,0,0.0,0.0,80,0.00,,,0.00,WUHU216HW,2013-07-08 20:41:00,
2013-07-08 16:46:00,82.4,75.8,30.03,North,0,0.0,0.0,80,0.00,,,0.00,WUHU216HW,2013-07-08 20:46:00,
2013-07-08 16:51:00,82.4,75.3,30.03,North,0,0.0,0.0,79,0.00,,,0.00,WUHU216HW,2013-07-08 20:51:00,
2013-07-08 16:57:00,82.4,75.3,30.03,North,0,0.0,0.0,79,0.00,,,0.00,WUHU216HW,2013-07-08 20:57:00,
2013-07-08 17:02:00,82.4,75.3,30.02,North,0,0.0,0.0,79,0.00,,,0.00,WUHU216HW,2013-07-08 21:02:00,
2013-07-08 17:07:00,82.4,75.3,30.02,North,0,0.0,0.0,79,0.00,,,0.00,WUHU216HW,2013-07-08 21:07:00,
2013-07-08 17:12:00,82.4,75.3,30.02,North,0,0.0,0.0,79,0.00,,,0.00,WUHU216HW,2013-07-08 21:12:00,
2013-07-08 17:17:00,82.4,75.3,30.02,North,0,0.0,0.0,79,0.00,,,0.00,WUHU216HW,2013-07-08 21:17:00,
2013-07-08 17:22:00,82.4,75.3,30.02,North,0,0.0,0.0,79,0.00,,,0.00,WUHU216HW,2013-07-08 21:22:00,
2013-07-08 17:28:00,82.3,75.2,30.02,North,0,0.0,0.0,79,0.00,,,0.00,WUHU216HW,2013-07-08 21:28:00,
2013-07-08 17:33:00,82.3,75.2,30.02,North,0,0.0,0.0,79,0.00,,,0.00,WUHU216HW,2013-07-08 21:33:00,
2013-07-08 17:38:00,82.3,75.2,30.01,North,0,0.0,0.0,79,0.00,,,0.00,WUHU216HW,2013-07-08 21:38:00,
2013-07-08 17:43:00,82.1,75.0,30.02,North,0,0.0,0.0,79,0.00,,,0.00,WUHU216HW,2013-07-08 21:43:00,
2013-07-08 17:49:00,82.1,75.0,30.02,North,0,0.0,0.0,79,0.00,,,0.00,WUHU216HW,2013-07-08 21:49:00,
2013-07-08 17:54:00,82.1,75.0,30.02,North,0,0.0,0.0,79,0.00,,,0.00,WUHU216HW,2013-07-08 21:54:00,
2013-07-08 17:59:00,82.1,75.4,30.02,North,0,0.0,0.0,80,0.00,,,0.00,WUHU216HW,2013-07-08 21:59:00,
2013-07-08 18:05:00,82.1,75.4,30.02,North,0,0.0,0.0,80,0.00,,,0.00,WUHU216HW,2013-07-08 22:05:00,
2013-07-08 18:11:00,81.9,75.2,30.02,North,0,0.0,0.0,80,0.00,,,0.00,WUHU216HW,2013-07-08 22:11:00,
2013-07-08 18:16:00,81.9,75.2,30.02,North,0,0.0,0.0,80,0.00,,,0.00,WUHU216HW,2013-07-08 22:16:00,
2013-07-08 18:21:00,81.7,75.1,30.02,North,0,0.0,0.0,80,0.00,,,0.00,WUHU216HW,2013-07-08 22:21:00,
2013-07-08 18:26:00,81.7,75.1,30.01,North,0,0.0,0.0,80,0.00,,,0.00,WUHU216HW,2013-07-08 22:26:00,
2013-07-08 18:32:00,81.7,75.1,30.01,North,0,0.0,0.0,80,0.00,,,0.00,WUHU216HW,2013-07-08 22:32:00,
2013-07-08 18:37:00,81.7,75.1,30.02,North,0,0.0,0.0,80,0.00,,,0.00,WUHU216HW,2013-07-08 22:37:00,
2013-07-08 18:42:00,81.5,74.9,30.02,North,0,0.0,0.0,80,0.00,,,0.00,WUHU216HW,2013-07-08 22:42:00,
2013-07-08 18:47:00,81.4,74.4,30.02,North,0,0.0,0.0,79,0.00,,,0.00,WUHU216HW,2013-07-08 22:47:00,
2013-07-08 18:52:00,81.4,74.4,30.02,North,0,0.0,0.0,79,0.00,,,0.00,WUHU216HW,2013-07-08 22:52:00,
2013-07-08 18:57:00,81.2,74.2,30.02,North,0,0.0,0.0,79,0.00,,,0.00,WUHU216HW,2013-07-08 22:57:00,
2013-07-08 19:03:00,81.2,74.5,30.02,North,0,0.0,0.0,80,0.00,,,0.00,WUHU216HW,2013-07-08 23:03:00,
2013-07-08 19:08:00,81.0,74.3,30.02,North,0,0.0,0.0,80,0.00,,,0.00,WUHU216HW,2013-07-08 23:08:00,
2013-07-08 19:13:00,81.0,74.3,30.02,North,0,0.0,0.0,80,0.00,,,0.00,WUHU216HW,2013-07-08 23:13:00,
2013-07-08 19:18:00,80.8,74.2,30.02,North,0,0.0,0.0,80,0.00,,,0.00,WUHU216HW,2013-07-08 23:18:00,
2013-07-08 19:24:00,80.6,74.4,30.02,North,0,0.0,0.0,81,0.00,,,0.00,WUHU216HW,2013-07-08 23:24:00,
2013-07-08 19:29:00,80.6,74.4,30.02,North,0,0.0,0.0,81,0.00,,,0.00,WUHU216HW,2013-07-08 23:29:00,
2013-07-08 19:34:00,80.5,74.2,30.02,North,0,0.0,0.0,81,0.00,,,0.00,WUHU216HW,2013-07-08 23:34:00,
2013-07-08 19:39:00,80.3,74.4,30.01,North,0,0.0,0.0,82,0.00,,,0.00,WUHU216HW,2013-07-08 23:39:00,
2013-07-08 19:44:00,80.3,74.4,30.01,North,0,0.0,0.0,82,0.00,,,0.00,WUHU216HW,2013-07-08 23:44:00,
2013-07-08 19:50:00,80.1,74.5,30.01,North,0,0.0,0.0,83,0.00,,,0.00,WUHU216HW,2013-07-08 23:50:00,
2013-07-08 19:55:00,79.9,74.4,30.02,North,0,0.0,0.0,83,0.00,,,0.00,WUHU216HW,2013-07-08 23:55:00,
2013-07-08 20:00:00,80.1,74.5,30.02,North,0,0.0,0.0,83,0.00,,,0.00,WUHU216HW,2013-07-09 00:00:00,
2013-07-08 20:05:00,80.1,74.5,30.02,North,0,0.0,0.0,83,0.00,,,0.00,WUHU216HW,2013-07-09 00:05:00,
2013-07-08 20:10:00,80.1,74.5,30.03,North,0,0.0,0.0,83,0.00,,,0.00,WUHU216HW,2013-07-09 00:10:00,
2013-07-08 20:15:00,79.9,74.4,30.03,North,0,0.0,0.0,83,0.00,,,0.00,WUHU216HW,2013-07-09 00:15:00,
2013-07-08 20:20:00,79.7,74.2,30.03,North,0,0.0,0.0,83,0.00,,,0.00,WUHU216HW,2013-07-09 00:20:00,
2013-07-08 20:26:00,79.7,74.2,30.03,North,0,0.0,0.0,83,0.00,,,0.00,WUHU216HW,2013-07-09 00:26:00,
2013-07-08 20:31:00,79.6,74.0,30.03,North,0,0.0,0.0,83,0.00,,,0.00,WUHU216HW,2013-07-09 00:31:00,
2013-07-08 20:36:00,79.6,74.0,30.04,North,0,0.0,0.0,83,0.00,,,0.00,WUHU216HW,2013-07-09 00:36:00,
2013-07-08 20:41:00,79.6,74.4,30.04,North,0,0.0,0.0,84,0.00,,,0.00,WUHU216HW,2013-07-09 00:41:00,
2013-07-08 20:46:00,81.9,77.9,30.04,North,0,0.0,0.0,88,0.00,,,0.00,WUHU216HW,2013-07-09 00:46:00,
2013-07-08 20:51:00,88.6,82.0,30.04,North,0,0.0,0.0,81,0.00,,,0.00,WUHU216HW,2013-07-09 00:51:00,
2013-07-08 20:57:00,93.2,83.7,30.04,North,0,0.0,0.0,74,0.00,,,0.00,WUHU216HW,2013-07-09 00:57:00,
2013-07-08 21:02:00,95.6,83.8,30.04,North,0,0.0,0.0,69,0.00,,,0.00,WUHU216HW,2013-07-09 01:02:00,
2013-07-08 21:07:00,97.6,84.2,30.04,North,0,0.0,0.0,66,0.00,,,0.00,WUHU216HW,2013-07-09 01:07:00,
2013-07-08 21:12:00,99.0,85.2,30.05,North,0,0.0,0.0,65,0.00,,,0.00,WUHU216HW,2013-07-09 01:12:00,
2013-07-08 21:17:00,99.7,84.4,30.04,North,0,0.0,0.0,62,0.00,,,0.00,WUHU216HW,2013-07-09 01:17:00,
2013-07-08 21:22:00,99.2,83.4,30.04,North,0,0.0,0.0,61,0.00,,,0.00,WUHU216HW,2013-07-09 01:22:00,
2013-07-08 21:28:00,97.2,81.5,30.05,North,0,0.0,0.0,61,0.00,,,0.00,WUHU216HW,2013-07-09 01:28:00,
2013-07-08 21:33:00,94.3,79.3,30.05,North,0,0.0,0.0,62,0.00,,,0.00,WUHU216HW,2013-07-09 01:33:00,
2013-07-08 21:38:00,91.6,77.7,30.05,North,0,0.0,0.0,64,0.00,,,0.00,WUHU216HW,2013-07-09 01:38:00,
2013-07-08 21:43:00,89.5,76.6,30.05,North,0,0.0,0.0,66,0.00,,,0.00,WUHU216HW,2013-07-09 01:43:00,
2013-07-08 21:48:00,87.8,76.0,30.05,North,0,0.0,0.0,68,0.00,,,0.00,WUHU216HW,2013-07-09 01:48:00,
2013-07-08 21:53:00,86.4,75.6,30.06,North,0,0.0,0.0,70,0.00,,,0.00,WUHU216HW,2013-07-09 01:53:00,
2013-07-08 21:58:00,85.3,75.3,30.06,North,0,0.0,0.0,72,0.00,,,0.00,WUHU216HW,2013-07-09 01:58:00,
2013-07-08 22:04:00,84.4,74.8,30.06,North,0,0.0,0.0,73,0.00,,,0.00,WUHU216HW,2013-07-09 02:04:00,
2013-07-08 22:10:00,83.5,74.4,30.06,North,0,0.0,0.0,74,0.00,,,0.00,WUHU216HW,2013-07-09 02:10:00,
2013-07-08 22:15:00,83.2,74.4,30.07,North,0,0.0,0.0,75,0.00,,,0.00,WUHU216HW,2013-07-09 02:15:00,
2013-07-08 22:20:00,82.4,74.2,30.07,North,0,0.0,0.0,76,0.00,,,0.00,WUHU216HW,2013-07-09 02:20:00,
2013-07-08 22:25:00,81.9,74.0,30.06,North,0,0.0,0.0,77,0.00,,,0.00,WUHU216HW,2013-07-09 02:25:00,
2013-07-08 22:30:00,81.4,73.5,30.07,North,0,0.0,0.0,77,0.00,,,0.00,WUHU216HW,2013-07-09 02:30:00,
2013-07-08 22:35:00,81.0,73.2,30.07,North,0,0.0,0.0,77,0.00,,,0.00,WUHU216HW,2013-07-09 02:35:00,
2013-07-08 22:40:00,80.6,73.2,30.07,North,0,0.0,0.0,78,0.00,,,0.00,WUHU216HW,2013-07-09 02:40:00,
2013-07-08 22:45:00,80.3,72.8,30.07,North,0,0.0,0.0,78,0.00,,,0.00,WUHU216HW,2013-07-09 02:45:00,
2013-07-08 22:50:00,79.9,72.9,30.07,North,0,0.0,0.0,79,0.00,,,0.00,WUHU216HW,2013-07-09 02:50:00,
2013-07-08 22:55:00,79.6,72.6,30.07,North,0,0.0,0.0,79,0.00,,,0.00,WUHU216HW,2013-07-09 02:55:00,
2013-07-08 23:01:00,79.4,72.7,30.07,North,0,0.0,0.0,80,0.00,,,0.00,WUHU216HW,2013-07-09 03:01:00,
2013-07-08 23:06:00,79.0,72.7,30.07,North,0,0.0,0.0,81,0.00,,,0.00,WUHU216HW,2013-07-09 03:06:00,
2013-07-08 23:12:00,78.8,72.5,30.07,North,0,0.0,0.0,81,0.00,,,0.00,WUHU216HW,2013-07-09 03:12:00,
2013-07-08 23:17:00,78.7,72.4,30.07,North,0,0.0,0.0,81,0.00,,,0.00,WUHU216HW,2013-07-09 03:17:00,
2013-07-08 23:22:00,78.5,72.2,30.07,North,0,0.0,0.0,81,0.00,,,0.00,WUHU216HW,2013-07-09 03:22:00,
2013-07-08 23:28:00,78.3,72.4,30.07,North,0,0.0,0.0,82,0.00,,,0.00,WUHU216HW,2013-07-09 03:28:00,
2013-07-08 23:33:00,78.1,72.2,30.07,North,0,0.0,0.0,82,0.00,,,0.00,WUHU216HW,2013-07-09 03:33:00,
2013-07-08 23:39:00,77.8,72.2,30.07,North,0,0.0,0.0,83,0.00,,,0.00,WUHU216HW,2013-07-09 03:39:00,
2013-07-08 23:44:00,77.6,72.0,30.07,North,0,0.0,0.0,83,0.00,,,0.00,WUHU216HW,2013-07-09 03:44:00,
2013-07-08 23:49:00,77.4,71.8,30.07,North,0,0.0,0.0,83,0.00,,,0.00,WUHU216HW,2013-07-09 03:49:00,
2013-07-08 23:54:00,77.4,72.2,30.07,North,0,0.0,0.0,84,0.00,,,0.00,WUHU216HW,2013-07-09 03:54:00,
2013-07-08 23:59:00,77.2,72.0,30.06,North,0,0.0,0.0,84,0.00,,,0.00,WUHU216HW,2013-07-09 03:59:00,